Home   Weather   Las Palmas   Past weeks
Flag for Spain

Past Weather in Las Palmas, Canary Islands, Spain — Yesterday and Last 2 Weeks

Now
77 °F

Passing clouds.


Feels Like: 79 °F
Forecast: 75 / 70 °F
Wind: 26 mph from Northeast

Location: Las Palmas De Gran Canaria / Gando

Current Time: Oct 18, 2019 at 3:21:31 pm

Latest Report: Oct 18, 2019 at 2:30 pm


Visibility: N/A

Pressure: 30.09 "Hg

Humidity: 57%

Dew Point: 61 °F

Location of Las PalmasLocation

Past Weather in Las Palmas — Graph

°F

Las Palmas Temperature Yesterday

Maximum temperature yesterday: 77 °F (at 1:30 pm)
Minimum temperature yesterday: 70 °F (at 5:30 am)
Average temperature yesterday: 73 °F

High & Low Weather Summary for the Past Weeks

 TemperatureHumidityPressure
High81 °F (Oct 4, 12:30 pm)83% (Oct 4, 2:30 am)30.18 "Hg (Oct 4, 2:30 am)
Low68 °F (Oct 11, 4:00 am)50% (Oct 13, 10:30 am)29.98 "Hg (Oct 4, 3:30 pm)
Average74 °F68%30.06 "Hg
* Reported Oct 3 2:00 pm — Oct 18 2:00 pm, Las Palmas. Weather by CustomWeather, © 2019

Note: Actual official high and low records may vary slightly from our data, if they occured in-between our weather recording intervals... More about our weather records

Advertising

Las Palmas Weather History for the Previous 24 Hours

Scroll right to see more
 ConditionsComfort  
Time TempWeatherWind HumidityBarometerVisibility
2:00 pm
Fri, Oct 18
77 °FPassing clouds.26 mph57%30.09 "HgN/A
1:30 pm77 °FPassing clouds.23 mph54%30.09 "HgN/A
1:00 pm79 °FPassing clouds.23 mph54%30.12 "HgN/A
12:30 pm77 °FPassing clouds.23 mph61%30.12 "HgN/A
12:00 pm77 °FPassing clouds.20 mph57%30.12 "HgN/A
11:30 am77 °FPassing clouds.17 mph51%30.12 "HgN/A
11:00 am75 °FPassing clouds.21 mph61%30.12 "HgN/A
10:30 am75 °FPassing clouds.21 mph65%30.12 "HgN/A
10:00 am73 °FPassing clouds.16 mph69%30.12 "HgN/A
9:30 am72 °FPassing clouds.10 mph73%30.12 "HgN/A
9:00 am70 °FPassing clouds.9 mph78%30.12 "HgN/A
8:30 am70 °FPassing clouds.12 mph78%30.12 "HgN/A
8:00 am70 °FPassing clouds.10 mph78%30.12 "HgN/A
7:30 am70 °FPassing clouds.12 mph78%30.09 "HgN/A
7:00 am70 °FPassing clouds.12 mph73%30.09 "HgN/A
6:30 am72 °FPassing clouds.15 mph69%30.09 "HgN/A
6:00 am70 °FPassing clouds.9 mph64%30.09 "HgN/A
5:30 am70 °FPassing clouds.10 mph64%30.09 "HgN/A
5:00 am70 °FPassing clouds.14 mph64%30.09 "HgN/A
4:30 am70 °FPassing clouds.12 mph64%30.09 "HgN/A
4:00 am70 °FPassing clouds.13 mph64%30.09 "HgN/A
3:30 am70 °FPassing clouds.15 mph69%30.12 "HgN/A
3:00 am70 °FPassing clouds.14 mph64%30.12 "HgN/A
2:30 am70 °FPassing clouds.13 mph64%30.12 "HgN/A
2:00 am70 °FPassing clouds.12 mph64%30.15 "HgN/A
1:30 am70 °FPassing clouds.12 mph64%30.15 "HgN/A
1:00 am70 °FPassing clouds.12 mph64%30.15 "HgN/A
12:30 am70 °FPassing clouds.12 mph69%30.15 "HgN/A
12:00 am70 °FPassing clouds.12 mph69%30.15 "HgN/A
11:30 pm
Thu, Oct 17
70 °FPassing clouds.10 mph69%30.15 "HgN/A
11:00 pm72 °FPassing clouds.12 mph65%30.15 "HgN/A
10:30 pm72 °FPassing clouds.13 mph65%30.15 "HgN/A
10:00 pm72 °FPassing clouds.13 mph65%30.15 "HgN/A
9:30 pm72 °FPassing clouds.13 mph65%30.15 "HgN/A
9:00 pm72 °FPassing clouds.12 mph65%30.12 "HgN/A
8:30 pm72 °FPassing clouds.15 mph65%30.12 "HgN/A
8:00 pm72 °FPassing clouds.16 mph65%30.12 "HgN/A
7:30 pm72 °FPassing clouds.15 mph61%30.12 "HgN/A
7:00 pm73 °FPassing clouds.15 mph57%30.12 "HgN/A
6:30 pm73 °FPassing clouds.17 mph61%30.12 "HgN/A
6:00 pm75 °FPassing clouds.17 mph54%30.12 "HgN/A
5:30 pm75 °FPassing clouds.18 mph54%30.12 "HgN/A
5:00 pm75 °FPassing clouds.20 mph54%30.12 "HgN/A
3:30 pm75 °FPassing clouds.22 mph57%30.12 "HgN/A
3:00 pm77 °FPassing clouds.22 mph51%30.12 "HgN/A
Weather by CustomWeather, © 2019

See weather overview